User: anonymous   Login
Location: Summit Observatory
(39.5293°N, 75.7290°W)
Time: 03:28:13
(UTC-04:00)
Language:

Gurwin Techsat 1B - Orbit

View from above orbital plane
View from above orbital plane
View from above satellite
View from above satellite

Ground track
Ground track

The orbit data is extracted from the following two-line orbital elements,

1 25397U 98043D   17262.86612223 -.00000017 +00000-0 +11371-4 0  9994
2 25397 098.6160 203.2350 0002437 085.9703 274.1755 14.23628806997041
Epoch (UTC): 19 September 2017 20:47:12
Eccentricity: 0.0002437
inclination: 98.6160°
perigee height: 811 km
apogee height: 815 km
right ascension of ascending node: 203.2350°
argument of perigee: 85.9703°
revolutions per day: 14.23628806
mean anomaly at epoch: 274.1755°
orbit number at epoch: 99704

The dashed part of the orbit path shows where the satellite is in the earth's shadow,  

DLR